| time (UTC) | temp F | wind direction | speed MPH | gust MPH | rain 1hr in | rain 24hr in | rain mn in | humidity % | barometer mb |
| 20260510211020 | 60 | 0 | 0.0 | 0.0 | 0.01 | 0.30 | 0.30 | 96 | 1011.7 |
| 20260510210020 | 60 | 0 | 0.0 | 0.0 | 0.01 | 0.30 | 0.30 | 96 | 1011.8 |
| 20260510205020 | 60 | 0 | 0.0 | 0.0 | 0.00 | 0.29 | 0.29 | 96 | 1011.8 |
| 20260510204020 | 60 | 0 | 0.0 | 0.0 | 0.00 | 0.29 | 0.29 | 96 | 1011.7 |
| 20260510203021 | 60 | 0 | 0.0 | 0.0 | 0.00 | 0.29 | 0.29 | 96 | 1011.8 |
| 20260510202021 | 60 | 0 | 0.0 | 0.0 | 0.00 | 0.29 | 0.29 | 96 | 1011.7 |
| 20260510201021 | 60 | 0 | 0.0 | 0.0 | 0.00 | 0.29 | 0.29 | 96 | 1011.6 |
| 20260510200020 | 60 | 0 | 0.0 | 0.0 | 0.00 | 0.29 | 0.29 | 96 | 1011.7 |
| 20260510195020 | 60 | 0 | 0.0 | 0.0 | 0.00 | 0.29 | 0.29 | 96 | 1011.6 |
| 20260510193021 | 60 | 0 | 0.0 | 0.0 | 0.00 | 0.29 | 0.29 | 96 | 1011.5 |
| 20260510190020 | 60 | 0 | 0.0 | 0.0 | 0.00 | 0.29 | 0.29 | 96 | 1011.4 |
| 20260510185020 | 60 | 0 | 0.0 | 0.0 | 0.00 | 0.29 | 0.29 | 95 | 1011.3 |
| 20260510183021 | 60 | 0 | 0.0 | 0.0 | 0.00 | 0.29 | 0.29 | 95 | 1011.2 |
| 20260510182022 | 60 | 0 | 0.0 | 0.0 | 0.00 | 0.29 | 0.29 | 95 | 1011.1 |
| 20260510181023 | 60 | 0 | 0.0 | 0.0 | 0.00 | 0.29 | 0.29 | 95 | 1011.0 |
| 20260510180021 | 60 | 0 | 0.0 | 0.0 | 0.00 | 0.29 | 0.29 | 95 | 1011.1 |
| 20260510174020 | 60 | 0 | 0.0 | 0.0 | 0.00 | 0.29 | 0.29 | 95 | 1011.1 |
| 20260510172021 | 61 | 0 | 0.0 | 0.0 | 0.00 | 0.29 | 0.29 | 95 | 1011.1 |
| 20260510171021 | 61 | 0 | 0.0 | 0.0 | 0.00 | 0.29 | 0.29 | 95 | 1011.1 |
| 20260510165020 | 60 | 0 | 0.0 | 0.0 | 0.00 | 0.29 | 0.29 | 95 | 1011.3 |
| 20260510164022 | 61 | 0 | 0.0 | 0.0 | 0.00 | 0.29 | 0.29 | 95 | 1011.3 |
| 20260510163021 | 61 | 0 | 0.0 | 0.0 | 0.00 | 0.29 | 0.29 | 95 | 1011.4 |
| 20260510161020 | 60 | 0 | 0.0 | 0.0 | 0.00 | 0.29 | 0.29 | 95 | 1011.7 |
| 20260510160020 | 60 | 0 | 0.0 | 0.0 | 0.01 | 0.29 | 0.29 | 95 | 1011.7 |
| 20260510155021 | 60 | 0 | 0.0 | 0.0 | 0.01 | 0.29 | 0.29 | 95 | 1011.8 |
| 20260510154021 | 60 | 0 | 0.0 | 0.0 | 0.01 | 0.29 | 0.29 | 95 | 1011.9 |
| 20260510151021 | 60 | 0 | 0.0 | 0.0 | 0.01 | 0.29 | 0.29 | 95 | 1012.1 |
| 20260510150022 | 60 | 0 | 0.0 | 0.0 | 0.00 | 0.28 | 0.28 | 95 | 1012.2 |
| 20260510145021 | 60 | 0 | 0.0 | 0.0 | 0.00 | 0.28 | 0.28 | 95 | 1012.3 |
| 20260510144022 | 60 | 0 | 0.0 | 0.0 | 0.00 | 0.28 | 0.28 | 95 | 1012.3 |
| 20260510143021 | 60 | 0 | 0.0 | 0.0 | 0.01 | 0.28 | 0.28 | 95 | 1012.3 |
| 20260510142021 | 60 | 0 | 0.0 | 0.0 | 0.04 | 0.28 | 0.28 | 95 | 1012.4 |
| 20260510141021 | 60 | 0 | 0.0 | 0.0 | 0.07 | 0.28 | 0.28 | 95 | 1012.5 |
| 20260510140021 | 60 | 0 | 0.0 | 0.0 | 0.13 | 0.28 | 0.28 | 95 | 1012.6 |
| 20260510135021 | 60 | 0 | 0.0 | 0.0 | 0.14 | 0.28 | 0.28 | 95 | 1012.7 |
| 20260510134022 | 60 | 238 | 0.0 | 1.0 | 0.15 | 0.28 | 0.28 | 94 | 1012.7 |
| 20260510133022 | 59 | 0 | 0.0 | 0.0 | 0.14 | 0.28 | 0.28 | 94 | 1012.9 |
| 20260510132021 | 59 | 0 | 0.0 | 0.0 | 0.11 | 0.24 | 0.24 | 93 | 1013.0 |
| 20260510130021 | 60 | 243 | 0.0 | 1.0 | 0.02 | 0.14 | 0.14 | 91 | 1013.2 |
| 20260510125020 | 60 | 230 | 0.0 | 1.0 | 0.03 | 0.14 | 0.14 | 90 | 1013.1 |
| 20260510124022 | 61 | 232 | 0.0 | 1.0 | 0.02 | 0.13 | 0.13 | 89 | 1013.1 |
| 20260510123021 | 62 | 0 | 0.0 | 0.0 | 0.02 | 0.13 | 0.13 | 89 | 1013.0 |
| 20260510122022 | 62 | 0 | 0.0 | 0.0 | 0.02 | 0.13 | 0.13 | 89 | 1013.1 |
| 20260510121021 | 62 | 0 | 0.0 | 0.0 | 0.02 | 0.13 | 0.13 | 88 | 1013.1 |
| 20260510120021 | 63 | 0 | 1.0 | 0.0 | 0.01 | 0.12 | 0.12 | 86 | 1013.1 |
| 20260510115021 | 63 | 0 | 0.0 | 0.0 | 0.00 | 0.11 | 0.11 | 85 | 1013.1 |
| 20260510114021 | 63 | 0 | 0.0 | 0.0 | 0.00 | 0.11 | 0.11 | 83 | 1013.0 |
| 20260510113021 | 64 | 0 | 0.0 | 0.0 | 0.00 | 0.11 | 0.11 | 85 | 1012.9 |
| 20260510112022 | 63 | 0 | 0.0 | 0.0 | 0.00 | 0.11 | 0.11 | 84 | 1013.0 |
| 20260510035954 | 59 | 0 | 0.0 | 0.0 | 0.00 | 0.00 | 0.00 | 89 | 1012.7 |
| 20260510033954 | 60 | 0 | 0.0 | 0.0 | 0.00 | 0.00 | 0.00 | 87 | 1012.6 |
| 20260510031955 | 59 | 0 | 0.0 | 0.0 | 0.00 | 0.00 | 0.00 | 87 | 1012.7 |
| 20260510030958 | 59 | 0 | 0.0 | 0.0 | 0.00 | 0.00 | 0.00 | 87 | 1012.9 |
| 20260510025954 | 60 | 0 | 0.0 | 0.0 | 0.00 | 0.00 | 0.00 | 86 | 1013.0 |
| 20260510023958 | 60 | 0 | 0.0 | 0.0 | 0.00 | 0.00 | 0.00 | 84 | 1013.1 |
| 20260510022954 | 60 | 0 | 0.0 | 0.0 | 0.00 | 0.00 | 0.00 | 84 | 1013.1 |
| 20260510021958 | 60 | 0 | 0.0 | 0.0 | 0.00 | 0.00 | 0.00 | 84 | 1013.1 |
| 20260510020954 | 60 | 0 | 0.0 | 0.0 | 0.00 | 0.00 | 0.00 | 84 | 1012.9 |
| 20260510015954 | 60 | 0 | 0.0 | 0.0 | 0.00 | 0.00 | 0.00 | 83 | 1012.8 |
| 20260510014955 | 60 | 0 | 0.0 | 0.0 | 0.00 | 0.00 | 0.00 | 82 | 1012.8 |
| 20260510013954 | 60 | 0 | 0.0 | 0.0 | 0.00 | 0.00 | 0.00 | 81 | 1012.8 |
| 20260510012954 | 60 | 0 | 0.0 | 0.0 | 0.00 | 0.00 | 0.00 | 82 | 1012.9 |
| 20260510010954 | 61 | 0 | 0.0 | 0.0 | 0.00 | 0.00 | 0.00 | 79 | 1013.1 |
| 20260510005954 | 61 | 0 | 0.0 | 0.0 | 0.00 | 0.00 | 0.00 | 80 | 1013.3 |
| 20260510003954 | 60 | 0 | 0.0 | 0.0 | 0.00 | 0.00 | 0.00 | 81 | 1013.6 |
| 20260510002956 | 60 | 0 | 0.0 | 0.0 | 0.00 | 0.00 | 0.00 | 82 | 1013.9 |
| 20260510001955 | 60 | 0 | 0.0 | 0.0 | 0.00 | 0.00 | 0.00 | 82 | 1014.1 |
| 20260509235955 | 60 | 0 | 0.0 | 0.0 | 0.00 | 0.00 | 0.00 | 81 | 1014.4 |
| 20260509233954 | 60 | 0 | 0.0 | 0.0 | 0.00 | 0.00 | 0.00 | 80 | 1014.3 |
| 20260509233007 | 60 | 0 | 0.0 | 0.0 | 0.00 | 0.00 | 0.00 | 80 | 1014.3 |
| 20260509231955 | 59 | 0 | 0.0 | 0.0 | 0.00 | 0.00 | 0.00 | 82 | 1014.5 |
| 20260509230954 | 59 | 0 | 0.0 | 0.0 | 0.00 | 0.00 | 0.00 | 84 | 1014.6 |
| 20260509224954 | 60 | 0 | 0.0 | 0.0 | 0.00 | 0.00 | 0.00 | 81 | 1014.4 |
| 20260509224004 | 60 | 0 | 0.0 | 0.0 | 0.00 | 0.00 | 0.00 | 80 | 1014.1 |
| 20260509222958 | 60 | 0 | 0.0 | 0.0 | 0.00 | 0.00 | 0.00 | 80 | 1013.7 |
| 20260509220954 | 60 | 0 | 0.0 | 0.0 | 0.00 | 0.00 | 0.00 | 80 | 1014.0 |
| 20260509215958 | 60 | 0 | 0.0 | 0.0 | 0.00 | 0.00 | 0.00 | 80 | 1013.9 |
| 20260509214958 | 61 | 0 | 0.0 | 0.0 | 0.00 | 0.00 | 0.00 | 79 | 1014.1 |
| 20260509211954 | 61 | 0 | 0.0 | 0.0 | 0.00 | 0.00 | 0.00 | 79 | 1014.7 |